GFSFLT1_sfc_temp_000.txt.gz
Temp
74 72 72 72 71 71 71 71 69 69 71 70 71 71 72 73 72 72 70 70 69 70 69 67 68 67 65 64 63 65 65 62
74 71 71 70 70 70 70 69 69 70 69 69 70 69 70 71 73 70 69 71 69 69 70 68 67 66 64 63 63 62 63 63
70 70 69 68 69 70 70 70 70 70 72 72 72 70 71 73 72 68 68 68 68 69 67 67 66 66 64 63 62 61 62 63
69 68 68 68 67 69 70 71 70 70 70 70 69 68 68 68 69 70 69 67 67 66 66 66 65 65 64 63 63 61 59 62
68 69 68 67 68 69 69 70 70 70 69 68 66 67 66 69 67 69 68 67 66 66 65 65 64 64 63 63 65 62 61 58
68 69 69 70 68 68 68 69 68 69 67 66 65 64 66 67 66 63 64 65 65 65 64 63 63 63 62 61 60 60 61 59
69 68 68 68 68 66 66 66 67 67 65 64 62 62 63 62 63 61 63 63 64 63 63 61 61 60 60 60 60 59 59 59
69 69 67 67 67 65 65 65 64 66 63 62 61 61 60 59 59 60 58 58 59 60 59 58 59 58 58 58 58 57 58 58
69 68 68 67 66 66 65 65 63 65 61 60 59 59 59 60 56 58 57 55 54 56 55 55 56 56 56 56 56 57 57 57
69 69 66 66 66 65 64 63 63 61 59 57 56 56 55 55 55 55 56 55 56 55 54 53 53 53 53 53 53 54 55 55
68 69 68 67 67 66 63 61 61 59 57 55 55 54 54 55 54 53 53 53 53 53 52 52 52 51 52 51 51 53 52 54
67 68 69 68 65 61 58 58 59 56 55 53 52 54 54 53 53 53 52 52 52 50 50 50 49 49 50 49 49 49 49 50
68 67 66 64 60 59 56 57 56 55 54 52 52 53 52 51 52 51 51 50 50 49 49 48 48 48 48 47 46 47 47 47
66 66 63 61 58 57 55 55 55 54 53 52 51 50 51 51 51 51 50 49 48 48 48 46 46 46 46 46 46 45 45 46
62 62 63 59 57 56 54 54 54 53 53 52 50 50 49 50 50 49 48 47 46 46 46 45 45 45 45 44 44 43 43 42
59 59 60 58 55 55 54 54 52 52 51 51 51 49 49 49 48 47 47 46 46 46 44 44 44 44 44 43 42 40 38 37
57 57 56 55 54 53 53 52 52 53 51 50 50 48 48 47 47 45 45 45 45 45 43 43 42 43 39 36 35 34 34 34
51 54 55 54 53 54 53 53 53 50 50 49 48 47 45 45 45 44 44 43 43 42 42 41 40 40 37 35 34 34 33 34
50 53 53 53 54 54 52 52 50 49 48 47 47 45 44 44 43 43 43 42 41 41 40 39 38 38 34 34 33 33 32 34

GFSFLT1_sfc_temp_003.txt.gz
Temp
83 81 79 79 78 77 76 76 75 74 75 74 75 75 74 74 74 74 71 71 71 71 71 69 68 68 66 65 63 65 64 63
84 80 78 76 76 74 74 74 73 74 73 72 72 70 72 73 74 72 71 73 71 70 71 69 69 67 66 65 64 62 63 65
79 79 76 75 74 74 74 74 74 73 75 74 74 73 73 74 74 71 71 70 70 70 69 68 68 66 65 65 63 61 62 65
76 75 75 75 73 73 74 75 75 73 73 74 72 71 70 70 71 71 70 69 70 69 68 67 66 66 64 64 64 61 59 62
76 75 76 74 73 74 74 75 75 75 73 71 69 68 67 70 71 72 72 71 69 69 68 67 66 65 63 63 65 63 61 58
75 76 77 77 76 73 73 73 73 74 73 68 67 64 67 69 69 67 67 67 68 67 67 65 64 64 64 63 62 61 62 60
76 78 77 76 75 73 72 72 72 73 71 69 64 62 64 64 64 62 62 64 64 65 65 63 62 61 61 61 61 60 59 59
74 74 75 76 74 73 72 71 70 71 70 68 66 64 63 62 61 60 60 58 60 60 60 58 58 59 59 59 58 57 57 56
73 73 73 74 73 73 73 71 69 70 69 67 66 64 62 62 61 58 57 58 58 59 58 57 57 57 56 56 56 56 56 56
72 73 73 73 72 71 72 71 71 70 68 67 64 62 59 58 58 58 57 58 58 58 56 55 55 55 55 54 55 54 55 55
71 72 71 71 72 72 71 70 69 69 68 64 60 58 58 57 57 55 55 55 56 55 54 54 54 54 53 53 53 53 53 53
70 71 72 71 71 70 68 67 66 65 64 59 57 56 56 55 55 55 55 55 54 53 53 53 52 52 52 51 51 51 51 51
71 70 69 69 69 68 67 65 62 63 60 57 55 55 55 54 54 54 54 53 53 52 52 52 51 51 51 50 49 50 49 49
69 67 67 67 67 66 64 63 60 60 58 56 54 53 53 53 53 53 53 52 52 52 51 49 49 49 49 49 48 48 48 48
67 65 64 63 65 65 62 60 59 58 57 56 54 53 53 53 52 51 51 52 50 50 49 49 48 48 48 48 47 46 46 46
64 60 59 60 62 62 61 59 58 57 55 54 51 53 53 52 51 51 51 50 49 49 48 48 47 48 48 46 45 43 42 40
61 56 55 58 59 60 59 57 56 56 54 52 53 53 51 50 50 49 49 48 48 47 46 46 45 47 42 39 39 39 37 35
56 51 54 58 57 58 56 56 54 50 52 51 51 50 49 48 49 49 47 46 46 45 45 44 43 43 40 38 36 36 34 33
49 53 56 56 54 56 55 51 51 50 50 51 51 50 48 48 47 46 46 46 44 43 43 42 41 41 37 36 35 33 32 33

GFSFLT1_sfc_temp_006.txt.gz
Temp
81 80 78 76 74 73 72 71 70 69 68 66 66 65 66 65 65 64 64 63 64 62 61 60 60 58 57 56 55 55 55 54
81 78 75 73 72 71 70 70 68 67 65 63 62 61 63 63 65 66 64 64 64 61 60 60 60 58 57 57 55 54 52 54
78 77 73 71 70 70 69 70 69 67 66 65 64 64 64 65 64 63 64 63 63 63 60 59 59 57 56 55 55 52 52 53
74 74 72 70 68 68 70 69 69 67 66 66 64 63 61 61 61 61 62 62 62 62 61 59 58 57 55 54 53 53 49 51
74 73 71 70 68 68 68 69 69 69 66 64 61 61 60 62 60 62 64 62 61 62 61 60 57 56 55 54 57 52 51 48
71 71 72 70 69 67 66 67 67 68 65 63 61 59 60 59 59 60 60 60 62 62 61 59 56 55 54 52 52 52 51 49
71 71 72 70 69 67 66 66 67 67 65 63 59 57 57 57 57 55 57 57 56 57 57 54 53 53 52 50 50 50 49 49
68 69 69 68 67 67 66 66 66 66 63 62 60 58 57 56 56 55 55 54 54 53 54 52 52 51 51 51 49 48 48 48
69 70 69 68 68 67 67 67 66 66 64 63 60 59 57 56 56 55 52 52 52 54 53 52 52 51 50 49 48 48 47 47
70 70 68 68 67 66 64 65 67 66 64 61 59 58 57 55 56 53 52 52 55 52 51 50 50 49 48 47 46 46 47 47
69 68 66 67 67 67 65 64 64 64 63 61 58 56 55 54 53 52 52 51 51 50 50 49 48 48 47 46 44 45 45 45
67 67 68 66 66 65 64 63 62 60 59 58 53 54 53 52 52 51 51 50 50 50 49 48 48 47 47 45 44 45 44 44
67 66 66 65 63 62 63 61 59 58 58 54 52 52 52 50 50 50 50 49 49 48 48 48 48 47 46 45 44 45 44 43
65 66 63 62 60 59 60 60 58 57 56 53 51 50 50 49 49 49 49 49 48 48 48 46 46 45 45 44 44 43 43 43
64 62 61 60 59 58 59 59 57 56 55 53 50 49 50 49 49 48 48 48 47 46 46 45 44 44 45 45 44 42 41 42
58 57 59 58 57 57 58 58 56 55 53 52 51 49 49 49 48 47 47 46 46 45 44 43 43 44 45 42 41 38 37 37
55 57 55 55 56 56 55 56 55 54 51 48 48 48 50 48 46 45 45 44 43 43 41 41 40 44 41 40 37 35 35 34
54 52 52 55 55 54 52 53 50 48 46 46 46 47 47 46 46 45 42 40 40 39 39 39 38 39 40 38 37 33 32 32
52 52 54 55 52 49 48 48 49 46 45 45 48 48 46 45 44 42 39 39 38 38 37 37 36 37 37 36 35 32 31 31

GFSFLT1_sfc_temp_009.txt.gz
Temp
69 67 66 65 64 64 64 63 64 62 60 59 58 58 59 57 57 57 59 58 60 57 55 55 56 54 52 53 52 51 50 50
65 65 64 63 62 64 64 62 62 60 58 57 56 55 56 56 57 59 58 58 59 57 55 55 54 53 52 53 51 50 49 50
66 65 62 63 62 62 62 63 61 60 59 57 57 56 56 57 57 57 58 57 57 57 56 54 54 53 53 52 50 49 48 49
64 66 62 60 61 61 62 62 62 60 60 58 57 55 55 55 56 55 56 58 57 57 55 54 53 52 51 50 50 49 46 48
64 62 59 60 60 60 62 63 62 61 59 57 56 56 54 55 55 55 55 56 57 57 57 55 53 51 50 49 52 49 47 44
63 62 63 60 60 60 61 62 61 62 59 56 54 54 54 55 55 55 54 54 56 57 55 54 52 50 50 49 47 46 46 45
61 61 62 63 61 60 59 59 61 61 60 58 55 54 56 53 53 52 52 53 53 53 53 50 50 48 49 47 47 47 45 44
59 58 60 58 57 59 58 57 58 59 57 57 56 56 55 55 52 50 50 50 50 50 50 50 49 50 49 49 48 46 45 44
60 58 58 58 58 58 57 59 59 59 56 55 55 54 55 55 53 50 47 47 49 49 49 48 48 48 48 47 47 47 44 43
59 58 58 57 57 57 55 55 57 57 57 54 53 52 50 49 47 47 48 48 50 48 47 46 46 45 46 47 44 43 42 43
59 57 57 57 56 55 54 55 56 56 55 53 51 49 48 47 47 47 47 46 47 46 45 44 44 46 46 45 44 43 42 41
57 57 57 56 54 54 53 55 55 53 53 50 48 47 47 46 48 47 47 47 46 45 45 45 46 46 46 44 43 42 41 41
57 56 55 54 54 53 55 55 53 52 50 47 46 46 46 45 45 46 46 45 46 46 46 46 46 45 44 42 41 41 41 40
54 54 56 55 53 53 54 55 50 51 48 46 45 45 45 44 44 45 46 45 45 45 46 44 44 43 42 41 41 41 40 39
52 52 53 52 53 54 52 50 50 50 48 45 44 44 44 43 43 43 44 45 43 43 43 43 42 41 42 41 41 39 37 37
51 51 51 51 52 52 50 49 50 50 48 44 42 42 44 46 45 44 43 43 43 42 41 39 39 39 42 39 36 34 32 32
51 52 51 51 52 50 49 47 45 47 44 43 44 44 44 45 45 44 42 41 40 39 37 36 35 40 40 38 36 31 31 31
50 49 50 51 50 48 44 45 46 45 44 44 43 43 42 42 44 43 40 37 36 34 34 34 33 32 38 37 37 33 31 30
48 49 49 46 44 43 44 43 45 44 43 43 43 43 42 42 41 39 36 34 33 33 32 31 30 34 36 36 35 32 30 30

GFSFLT1_sfc_temp_015.txt.gz
Temp
62 62 61 59 57 58 59 58 58 57 54 53 53 52 53 52 53 53 55 54 55 53 52 52 51 49 48 48 48 47 47 47
55 57 56 56 56 58 58 57 57 54 52 52 51 52 52 52 53 55 54 55 55 52 51 51 50 49 49 48 47 47 46 45
57 55 54 57 58 57 57 57 57 55 54 53 53 52 52 53 54 53 55 55 55 54 52 52 51 49 48 47 47 45 45 44
56 57 55 54 56 57 58 58 57 56 55 54 52 51 51 50 52 51 54 55 56 54 53 53 51 51 50 48 47 46 44 44
57 57 56 56 57 56 56 58 57 57 55 53 52 52 55 57 57 55 55 53 55 56 55 53 52 50 47 46 48 44 43 42
58 59 59 57 56 55 54 55 57 57 56 54 52 50 53 55 53 49 51 51 52 54 54 54 52 50 48 46 45 43 43 42
56 56 56 57 54 53 53 54 56 55 54 53 51 50 51 50 51 48 51 48 48 48 49 48 47 46 43 43 45 45 45 44
54 54 54 54 53 51 53 53 54 54 53 53 54 52 50 48 49 49 48 44 42 43 45 46 43 44 43 45 43 44 44 42
51 52 51 51 50 51 51 52 53 54 53 53 52 50 48 48 47 46 45 43 41 41 42 44 44 44 44 43 42 42 42 41
50 51 51 50 51 51 50 51 52 51 51 49 48 47 47 46 44 42 40 42 43 41 42 43 44 44 44 43 41 41 41 42
49 50 51 52 52 51 49 49 49 49 48 47 50 48 45 44 41 40 40 41 41 42 43 44 44 43 42 42 41 42 41 39
48 49 50 50 50 50 49 48 47 47 46 46 45 44 43 41 40 40 40 41 42 43 44 45 43 42 42 41 41 40 39 38
49 51 51 49 49 48 47 46 46 45 45 45 43 42 41 40 40 41 42 44 45 45 43 43 43 43 42 40 38 39 37 36
52 51 51 49 48 48 48 46 44 44 45 43 41 40 40 39 39 42 43 43 44 43 42 40 41 40 39 38 37 36 36 35
50 48 49 47 47 47 47 44 43 43 43 41 40 39 41 39 41 40 41 42 42 41 41 40 39 37 37 37 36 34 32 32
49 48 46 46 46 46 44 43 43 43 42 41 41 42 42 41 41 41 41 43 43 40 38 36 35 36 37 34 33 32 31 30
47 49 48 47 46 44 43 43 42 42 40 41 43 42 42 41 40 39 40 40 39 37 36 35 33 36 37 37 35 30 30 30
49 48 47 47 45 43 40 40 41 42 41 40 43 42 40 39 39 39 37 35 35 34 33 32 31 31 36 36 36 31 29 29
48 49 47 43 42 41 40 40 41 40 40 39 39 39 39 37 36 35 34 33 32 31 31 31 29 31 34 35 34 30 28 28

GFSFLT1_sfc_temp_018.txt.gz
Temp
59 60 58 58 57 57 57 57 57 56 53 52 52 51 52 51 52 52 53 53 54 52 51 51 50 48 48 46 47 46 47 47
52 54 55 55 55 56 57 56 56 53 51 51 51 52 52 52 52 53 53 54 53 52 52 50 50 49 50 48 46 46 45 44
54 52 52 54 55 56 56 57 56 54 53 51 51 50 51 51 52 52 52 52 53 53 52 52 50 50 47 47 46 44 45 44
54 54 52 53 55 55 57 56 57 55 54 53 52 51 51 50 52 51 53 53 54 52 53 53 51 51 51 50 48 46 46 43
54 55 53 53 54 54 54 55 56 57 54 52 50 49 49 52 51 51 55 52 52 53 53 52 52 51 51 48 47 45 44 42
55 55 56 53 52 51 52 53 53 53 52 51 50 49 48 50 50 49 51 50 49 51 52 52 50 48 49 48 45 45 45 43
54 54 54 52 50 50 50 52 53 53 52 52 50 47 47 48 49 47 48 46 45 45 46 45 44 43 42 44 45 45 43 44
49 49 49 50 52 51 52 51 52 54 54 53 49 47 46 46 47 47 46 44 40 39 41 41 42 42 42 42 43 42 43 42
48 48 48 52 52 50 50 52 52 52 50 48 47 47 48 48 47 45 42 40 38 40 41 41 41 41 41 42 43 42 42 42
47 48 49 51 52 52 49 48 49 49 47 46 46 45 46 47 45 41 39 39 41 40 40 40 41 43 44 43 41 41 41 40
49 50 51 51 49 48 48 47 47 47 46 45 47 45 44 43 41 40 38 39 40 40 40 41 41 43 43 42 41 41 40 40
48 49 49 49 48 48 47 46 46 45 44 44 43 45 44 41 39 39 38 40 40 41 42 43 43 43 41 39 40 41 40 39
48 48 48 47 48 48 47 46 45 44 43 43 42 41 40 39 38 39 40 42 43 43 44 43 42 40 40 38 37 37 36 36
50 51 50 48 47 47 46 46 44 43 43 41 41 41 38 37 38 40 41 41 42 42 42 41 41 40 38 37 37 36 35 34
51 47 46 47 47 47 45 44 43 42 41 40 38 37 39 40 39 40 40 41 41 41 41 39 38 37 37 36 36 34 32 32
45 47 50 51 50 49 44 43 42 42 40 39 38 39 41 41 41 40 41 41 41 38 37 36 35 35 37 33 33 32 31 30
48 50 49 50 48 45 42 42 42 42 41 40 40 42 42 39 39 39 38 39 39 37 35 33 32 35 36 36 35 31 31 31
47 47 47 45 43 42 41 40 40 41 39 41 40 41 40 40 40 38 36 34 33 32 32 32 31 31 35 36 35 31 30 29
44 43 42 42 41 40 38 39 38 38 40 41 41 40 39 37 35 34 32 31 31 30 30 30 29 31 34 34 34 29 28 28

GFSFLT1_sfc_temp_021.txt.gz
Temp
69 70 69 69 68 70 70 69 69 67 68 66 68 67 68 67 68 68 66 67 65 65 66 65 65 64 64 63 61 62 63 63
66 65 67 67 66 68 68 69 68 68 67 66 68 66 67 68 68 66 65 66 65 64 65 65 64 62 63 62 62 59 60 61
65 65 64 65 68 68 67 67 65 65 66 65 65 64 66 65 65 65 65 64 64 63 63 64 63 62 61 61 59 60 60 61
66 65 64 63 63 62 64 65 65 64 63 65 65 65 65 66 67 67 67 65 64 63 62 62 62 61 61 61 60 58 59 60
64 64 62 61 60 61 63 63 64 64 63 63 61 61 60 63 62 63 63 63 62 62 61 60 60 61 59 60 61 59 58 58
61 61 61 60 60 60 62 63 63 62 61 61 60 59 60 60 60 59 60 61 61 60 59 58 58 59 58 57 57 55 57 53
59 60 61 61 61 61 61 62 62 62 61 60 58 56 56 57 57 58 59 59 59 56 55 54 54 54 53 54 53 52 53 52
58 59 61 61 60 59 61 61 60 60 59 57 57 56 55 56 57 57 56 56 56 53 52 52 51 51 51 51 50 49 49 46
57 58 59 60 59 60 60 59 59 59 58 57 57 57 57 57 56 55 54 53 52 50 50 51 50 50 50 50 45 44 42 39
58 60 60 59 57 58 57 57 57 59 58 56 56 56 54 54 54 53 52 51 50 49 50 50 50 50 47 45 42 41 42 42
60 61 59 59 59 60 58 58 57 57 57 55 55 54 54 53 51 50 49 49 49 49 50 49 48 49 48 47 46 46 44 43
58 58 59 59 58 58 57 57 56 56 55 53 52 52 51 50 48 48 48 48 49 48 48 48 46 45 46 47 46 46 46 45
56 57 56 56 57 59 58 57 56 55 53 52 52 50 49 48 47 48 48 48 47 46 45 42 41 42 46 46 44 44 43 43
56 56 56 56 57 57 55 54 53 53 52 51 49 47 46 46 45 44 46 44 43 43 42 43 45 44 44 44 43 43 43 43
54 54 55 55 55 53 52 52 51 51 51 50 47 46 46 44 43 43 44 45 45 46 45 44 43 43 43 43 43 42 41 41
51 52 53 52 50 50 51 50 50 50 48 47 46 46 46 46 45 46 46 46 45 44 40 41 40 40 41 40 41 40 39 39
50 50 49 48 48 47 46 46 47 48 47 46 44 43 44 43 42 45 45 44 44 42 41 39 39 40 36 36 37 39 38 36
47 47 47 45 45 44 44 45 46 46 45 46 44 43 44 44 44 43 41 41 41 40 39 39 38 37 35 35 35 36 35 35
46 46 45 45 45 45 44 46 46 45 45 45 45 43 43 42 42 41 40 40 39 38 38 37 37 37 34 33 33 35 34 34

GFSFLT1_sfc_temp_027.txt.gz
Temp
88 86 87 88 86 84 84 85 84 83 83 83 83 83 83 84 83 82 79 78 77 75 75 75 75 75 74 75 73 74 73 73
82 81 82 83 81 82 82 82 80 81 82 80 80 79 80 80 81 79 77 77 75 74 74 74 74 72 72 72 72 70 70 72
78 78 78 77 77 79 79 79 78 79 81 78 77 76 78 78 79 77 77 75 73 72 71 71 71 70 69 69 69 68 69 71
76 75 75 75 75 76 77 77 77 75 76 80 78 78 78 77 77 76 75 73 72 71 70 69 68 69 68 68 68 66 65 68
76 74 74 73 73 75 77 76 76 75 74 75 72 72 71 73 72 72 72 72 71 71 70 69 67 66 65 66 68 66 65 62
74 74 74 74 73 73 74 76 75 74 73 71 70 69 70 71 71 69 68 70 70 70 69 67 65 64 64 63 62 62 63 61
74 75 75 75 74 73 74 74 75 74 73 71 69 67 66 67 67 66 67 66 67 67 66 64 63 62 62 61 58 56 54 54
72 72 73 72 72 72 73 74 73 74 72 70 69 68 66 66 65 64 62 62 63 63 63 61 62 60 56 55 54 52 51 48
71 72 72 73 72 73 72 71 71 72 71 69 69 68 67 65 64 62 61 61 60 61 61 57 54 50 50 50 47 48 47 42
71 72 72 71 71 71 70 69 69 69 69 68 66 65 64 63 62 61 60 59 60 58 52 47 46 47 47 45 45 45 45 48
70 71 70 70 70 71 70 69 68 68 68 65 65 64 64 63 61 59 58 58 54 52 47 47 47 45 45 47 44 45 43 43
70 70 70 70 70 70 69 67 66 65 65 64 63 63 63 62 59 59 57 54 52 51 50 48 47 48 49 49 49 48 47 47
67 67 67 66 67 68 66 65 65 64 63 62 61 61 61 59 57 52 54 53 53 52 50 50 50 51 51 50 49 49 48 48
68 66 64 65 66 65 64 63 62 61 61 60 60 59 57 54 53 52 53 52 51 50 50 48 50 51 50 50 49 49 49 48
65 64 64 65 64 63 61 60 59 59 59 58 57 55 53 52 50 44 48 49 49 49 50 51 51 52 51 51 50 47 46 47
62 60 61 61 61 59 59 58 59 59 57 57 56 52 52 51 50 49 51 51 52 52 52 51 51 50 50 46 45 43 43 43
59 58 56 57 59 58 58 58 57 58 57 56 55 51 51 50 51 50 50 50 50 51 50 49 48 50 36 36 37 40 40 41
54 52 54 57 58 58 57 57 58 57 56 55 52 51 50 50 51 50 49 48 50 48 48 48 47 47 37 36 35 38 38 39
49 52 56 59 58 58 58 58 57 57 56 54 53 50 49 49 49 48 49 48 47 47 46 46 45 45 36 35 34 37 38 38

GFSFLT1_sfc_temp_030.txt.gz
Temp
84 81 79 80 76 78 78 80 78 77 74 74 73 73 73 72 72 70 69 69 69 66 65 64 65 64 63 62 61 62 61 61
76 75 76 76 75 76 76 74 71 72 72 70 69 67 68 69 71 70 70 69 68 65 64 64 62 61 60 61 60 59 60 60
74 73 71 72 72 73 74 73 71 72 71 70 68 67 69 69 70 69 70 68 66 66 62 61 61 59 58 57 57 57 58 58
71 71 70 69 69 70 72 72 71 69 68 71 69 68 67 67 67 67 66 66 66 64 62 60 59 58 56 55 56 55 55 56
72 71 69 68 68 69 71 72 72 70 68 67 64 63 63 63 64 64 64 64 63 62 61 59 57 57 55 55 59 54 53 51
71 70 70 70 68 68 69 71 72 70 68 66 63 61 61 62 61 60 60 60 60 61 59 57 55 55 54 53 51 49 50 48
72 73 73 70 69 68 68 70 71 70 68 66 63 61 60 58 58 57 57 57 57 57 58 55 54 53 51 50 49 49 49 47
70 71 71 71 69 69 69 69 68 68 66 65 63 61 59 58 57 56 55 55 54 54 54 51 49 48 48 48 47 46 46 44
70 70 69 69 68 67 67 67 66 66 64 63 62 60 59 58 58 55 53 53 52 50 49 48 47 47 46 46 45 45 45 43
70 70 69 67 67 66 65 65 66 65 63 61 60 59 58 57 57 55 53 53 54 49 47 46 45 45 46 45 43 42 43 42
69 69 68 68 67 67 64 64 64 63 62 59 59 58 57 56 55 53 51 50 50 49 47 46 45 44 44 44 45 45 43 41
68 68 68 67 66 65 63 62 62 60 59 58 56 56 56 55 53 51 50 49 50 48 49 46 47 47 46 44 43 44 42 42
68 67 65 64 62 62 62 60 59 58 58 57 56 55 55 53 51 51 50 49 50 49 48 47 47 47 47 46 44 44 43 42
66 65 64 63 62 61 60 58 58 57 58 56 55 54 51 49 49 48 47 46 47 46 47 47 47 47 46 45 45 44 42 41
63 63 62 62 61 60 59 58 57 57 57 55 53 50 49 48 48 47 46 46 46 46 47 47 47 47 47 45 44 40 39 39
58 58 58 58 58 58 58 57 56 56 55 54 52 50 49 48 48 48 48 47 47 47 46 45 44 46 43 37 38 37 35 36
55 57 55 55 56 57 57 56 55 55 54 53 53 51 49 48 47 46 47 46 46 45 44 43 42 47 36 36 35 33 35 34
53 53 53 55 56 57 55 55 56 55 54 55 54 51 48 47 48 48 46 44 44 42 42 42 40 39 37 36 35 33 32 32
51 52 53 56 58 57 56 58 55 54 53 53 53 50 48 48 47 46 44 42 40 39 39 39 37 39 37 35 34 31 30 31

GFSFLT1_sfc_temp_033.txt.gz
Temp
69 69 70 68 68 69 65 68 64 64 63 63 63 63 63 63 62 63 65 64 64 60 59 59 59 57 56 55 54 55 55 55
66 66 66 67 64 66 66 66 61 60 60 60 59 60 61 61 62 65 65 63 62 60 58 58 57 56 54 55 53 52 54 53
64 62 60 59 60 62 63 64 63 63 61 60 60 59 61 61 61 62 62 61 61 61 56 55 55 53 53 52 51 49 50 51
63 62 58 59 59 61 63 63 63 61 61 60 60 59 59 58 58 57 58 58 58 56 55 53 52 52 50 49 50 48 46 48
62 60 58 59 58 60 62 63 63 63 62 59 57 54 54 55 55 55 56 56 56 56 54 52 51 50 49 48 49 46 45 42
59 59 60 60 60 60 61 62 62 62 60 59 56 55 55 55 55 54 54 54 54 54 54 51 48 47 46 45 45 45 48 47
61 61 61 59 59 59 60 61 61 60 59 57 56 54 55 53 53 51 51 51 51 50 50 47 46 45 44 43 43 45 42 43
59 60 59 58 58 57 60 59 59 59 58 56 54 54 53 51 50 49 48 48 46 45 45 44 43 43 43 43 44 42 41 40
59 59 58 58 59 58 58 59 60 59 56 55 54 53 52 51 51 50 48 47 44 44 44 43 43 43 42 41 41 41 40 40
59 59 59 58 59 58 56 57 58 56 54 52 52 52 51 50 49 47 45 45 49 44 43 43 42 42 41 41 39 39 39 38
60 59 58 57 57 56 56 56 56 54 53 51 52 50 50 48 46 45 46 45 46 45 44 42 42 42 43 40 39 40 39 38
58 57 58 58 58 56 54 54 53 51 51 51 49 49 49 48 48 46 45 45 44 44 45 46 45 45 45 42 41 41 40 39
58 57 57 56 55 54 52 51 51 50 51 50 49 49 47 45 45 44 43 42 43 44 46 45 45 44 44 43 41 41 39 36
55 55 53 53 55 54 52 52 51 52 51 50 48 47 45 44 43 44 43 42 42 42 43 43 43 42 42 41 39 38 36 36
52 52 52 52 55 54 53 50 50 50 50 49 47 44 45 44 43 43 42 43 42 41 43 43 42 41 39 38 38 34 33 34
51 49 48 49 49 50 51 50 50 50 49 48 46 44 44 44 43 43 43 43 43 42 41 41 40 39 38 33 33 31 30 31
49 49 49 49 50 50 51 50 49 49 48 47 47 45 44 43 42 42 42 42 42 41 40 38 35 39 36 36 33 29 30 30
47 46 47 49 48 52 48 49 49 49 48 48 49 46 46 43 44 43 41 39 38 38 37 35 34 33 36 36 35 30 29 28
45 46 48 49 50 49 48 51 49 47 49 48 47 44 45 45 43 42 40 38 36 37 34 33 32 36 37 37 35 29 27 28

GFSFLT1_sfc_temp_036.txt.gz
Temp
63 63 64 64 63 64 61 60 61 61 60 59 58 59 60 60 60 61 64 62 61 57 56 56 55 54 53 52 51 51 51 50
61 61 60 61 59 61 61 60 58 58 57 56 56 56 57 58 61 63 62 61 59 55 54 53 53 52 50 51 50 49 49 49
60 58 56 56 56 58 59 60 60 59 58 56 57 55 56 58 59 58 58 56 56 56 52 51 51 50 49 48 47 46 46 46
58 57 54 54 55 57 59 59 59 58 59 58 57 56 55 54 54 53 54 54 54 52 51 50 49 48 46 45 45 44 43 44
58 57 56 56 56 57 58 59 59 60 58 57 55 53 52 52 51 51 51 53 52 52 50 48 47 46 45 45 47 44 47 45
56 56 57 57 58 57 57 58 58 58 56 55 53 53 53 54 53 51 51 51 51 51 49 47 45 45 44 43 42 42 42 41
56 57 58 56 55 55 55 56 56 56 55 53 53 52 51 51 50 49 49 48 47 47 47 45 44 43 42 42 41 41 40 40
55 55 55 55 54 54 56 57 55 54 54 53 52 51 50 48 48 47 47 45 43 44 44 43 42 42 42 41 40 39 38 37
55 55 55 55 56 55 54 55 54 54 53 51 50 50 49 49 47 46 45 44 44 44 43 42 42 42 42 40 38 38 38 36
58 55 54 54 54 54 53 54 53 52 51 50 49 49 48 46 45 45 44 44 47 43 42 42 41 41 41 40 38 37 37 37
55 56 56 54 53 52 51 51 51 52 51 50 50 48 47 45 44 44 43 43 43 42 42 41 40 44 44 40 39 39 38 38
55 55 53 53 51 51 50 51 51 50 53 49 47 47 46 45 44 42 42 42 42 41 42 42 43 41 42 41 40 40 39 37
53 51 52 51 51 51 50 49 52 50 49 48 47 46 45 43 43 42 42 42 42 41 42 42 42 41 40 39 37 36 35 34
50 50 50 50 51 51 50 49 48 49 49 47 47 45 43 42 42 42 42 42 41 40 41 40 40 40 37 36 35 34 33 33
49 47 47 47 49 48 48 48 48 48 48 47 45 44 42 41 41 41 41 41 40 40 40 40 39 37 36 35 34 31 31 32
47 46 45 46 47 47 49 48 48 47 46 45 44 43 42 43 41 41 42 43 43 42 40 38 37 36 36 32 32 30 29 29
45 46 46 47 47 47 47 47 46 46 45 45 46 44 44 41 42 40 42 42 41 40 37 36 35 38 36 36 33 29 30 29
44 44 45 45 45 46 45 45 47 46 45 45 44 44 42 41 41 40 39 37 38 38 36 34 32 32 36 37 36 31 28 27
43 43 44 45 45 45 44 45 45 44 43 42 42 41 40 40 38 38 36 36 36 36 32 32 31 34 36 36 35 29 27 27

GFSFLT1_sfc_temp_039.txt.gz
Temp
59 60 60 59 59 59 59 61 62 61 59 58 57 58 58 58 57 58 57 58 59 57 54 55 55 54 50 49 49 49 48 47
57 58 59 58 57 58 59 60 59 57 56 56 54 53 53 54 59 60 59 59 57 55 55 52 50 50 48 49 47 46 46 45
56 55 55 55 55 56 56 57 57 56 57 55 55 53 54 54 55 54 54 53 53 53 50 51 53 52 49 46 45 44 44 43
54 54 52 53 54 55 57 56 57 57 56 55 54 54 53 52 51 50 51 52 52 50 50 48 47 46 44 43 43 42 41 42
56 54 53 53 53 54 56 57 57 57 56 55 54 52 50 49 49 49 49 50 50 50 48 46 45 44 43 42 46 42 41 40
55 57 57 55 54 53 54 55 55 55 54 53 52 50 51 52 52 50 50 49 49 49 47 45 43 43 42 41 40 40 40 39
56 55 56 54 53 53 53 55 54 53 52 52 51 51 51 50 49 48 47 46 45 44 45 43 43 42 41 40 40 39 38 38
53 54 56 57 54 54 53 52 51 52 52 51 50 49 48 47 46 45 45 43 42 43 43 42 41 41 41 40 39 38 37 36
57 57 56 55 55 52 52 51 52 51 51 49 48 49 47 46 45 44 43 43 43 43 42 41 41 41 40 40 37 37 37 36
55 53 52 56 54 50 50 51 51 50 49 48 48 47 47 45 45 43 42 42 44 42 41 40 40 40 40 40 37 36 36 36
54 52 53 52 50 50 49 49 49 49 48 48 49 46 46 45 43 42 42 42 42 41 40 39 39 39 39 39 37 37 36 35
49 50 52 53 53 49 48 49 49 48 50 49 46 45 45 43 42 42 41 41 40 40 40 40 40 39 39 37 37 36 34 33
50 51 50 50 49 50 48 47 47 47 47 47 46 45 44 42 41 41 41 40 41 40 40 40 40 39 38 36 35 34 32 31
47 47 47 49 49 48 48 47 46 46 46 45 44 43 42 41 41 41 41 40 41 40 41 40 39 40 37 34 34 32 31 32
46 48 48 48 49 46 46 46 45 45 45 44 43 42 41 40 40 39 39 40 39 40 39 40 40 37 36 35 34 31 30 31
45 45 46 45 44 44 45 44 44 44 43 42 41 41 41 40 39 39 39 39 39 39 40 39 37 36 36 32 32 30 29 29
44 44 44 43 43 43 44 43 43 43 43 42 42 42 41 39 38 38 37 36 37 39 36 37 36 37 36 36 34 29 30 30
42 42 42 42 42 43 42 42 43 42 41 41 41 41 40 39 39 37 35 35 35 35 36 36 33 32 36 37 36 31 28 27
41 42 42 41 41 42 41 43 41 40 40 40 40 39 38 38 37 35 33 33 32 32 32 32 31 33 35 35 32 26 25 26

GFSFLT1_sfc_temp_042.txt.gz
Temp
56 56 57 57 58 59 60 60 60 58 58 58 57 56 55 55 54 56 59 58 58 55 55 55 53 52 49 50 49 49 47 46
54 55 55 57 57 59 60 60 59 59 57 55 54 52 52 52 54 56 55 55 54 52 50 49 49 49 47 48 46 45 45 44
53 53 53 54 55 57 57 56 56 56 56 54 53 51 50 51 51 51 52 51 51 51 49 48 47 47 45 44 43 42 43 43
52 53 52 53 53 54 56 57 57 56 55 53 52 51 50 50 49 48 49 50 50 49 48 47 45 45 43 42 42 41 39 41
51 50 51 52 52 52 54 55 55 55 54 54 52 50 49 48 48 47 48 49 48 48 46 45 43 43 42 41 43 40 39 38
52 52 53 52 52 51 53 54 54 53 53 52 50 49 48 49 48 48 47 46 46 46 45 43 43 43 42 41 40 39 39 38
54 53 54 52 52 51 53 55 53 53 51 51 50 50 49 47 47 46 45 43 43 44 45 43 42 42 41 40 39 38 38 37
52 52 52 54 55 53 54 53 52 52 51 49 48 47 47 46 45 44 44 43 42 43 43 41 40 40 40 39 38 37 37 36
51 55 54 54 52 52 53 52 50 49 49 48 48 48 47 46 45 44 43 42 42 42 41 41 40 40 39 38 37 36 36 36
52 50 50 50 50 49 49 50 50 49 48 47 47 47 46 45 44 42 41 41 44 42 41 39 39 39 39 38 37 36 36 35
48 49 49 49 50 49 48 50 48 48 47 46 48 46 45 44 42 42 41 41 41 40 39 39 39 39 38 38 37 36 35 35
46 47 48 48 48 47 47 48 49 47 46 46 45 44 43 42 41 41 40 40 39 39 39 39 39 38 38 38 37 36 34 34
46 46 49 50 50 50 49 48 47 45 44 44 43 43 42 41 40 40 40 39 39 39 40 39 39 39 39 38 36 35 33 33
44 45 45 48 48 48 48 45 43 44 44 42 42 41 40 39 39 39 39 39 38 38 38 37 38 39 37 36 35 33 32 32
44 44 44 46 47 45 44 44 43 43 43 42 40 39 39 39 38 38 38 38 37 37 37 37 39 38 36 36 34 32 31 31
44 43 45 45 44 44 43 42 42 42 41 40 39 39 39 39 39 38 37 37 36 36 36 37 36 37 37 34 32 31 30 29
42 43 43 42 42 41 42 42 41 41 39 39 40 39 39 38 37 37 36 35 35 37 36 34 34 38 37 37 35 30 30 29
42 40 41 41 41 42 39 39 40 39 39 40 39 39 38 37 37 36 34 33 34 32 32 33 32 31 36 36 34 29 27 27
40 40 40 40 39 39 38 39 38 38 38 38 38 37 36 36 35 35 34 35 35 34 31 30 30 32 35 33 32 27 26 26

GFSFLT1_sfc_temp_045.txt.gz
Temp
60 62 63 64 65 65 64 64 62 59 57 57 57 59 61 62 62 65 65 66 64 64 63 62 63 62 61 60 58 58 58 58
61 62 63 64 65 65 63 59 59 58 59 61 61 61 62 64 66 65 64 64 63 62 62 61 61 60 57 57 58 56 57 57
60 61 63 64 65 65 62 63 60 62 65 67 66 65 64 64 63 61 61 61 61 61 60 59 58 59 56 55 54 54 56 55
59 60 61 62 63 64 66 66 66 66 66 65 64 63 62 62 63 63 60 59 59 59 58 58 57 58 56 55 54 52 51 54
60 60 61 62 63 64 66 65 66 65 64 65 63 66 65 61 61 61 61 58 57 58 57 57 56 57 54 54 55 52 51 50
61 62 63 62 61 62 62 63 63 62 62 62 63 60 60 60 61 58 58 58 57 57 56 56 56 56 55 53 52 51 52 49
62 63 63 62 60 60 61 62 61 60 60 60 60 59 58 60 59 59 58 58 57 56 56 55 55 54 53 53 51 50 50 49
61 61 61 61 61 60 61 62 59 59 59 59 59 58 58 58 58 58 57 57 56 56 55 54 54 52 52 51 50 49 49 48
60 61 62 62 60 61 61 59 58 58 59 58 58 59 61 60 58 58 57 57 57 56 54 53 52 51 50 50 49 49 48 47
61 61 60 60 60 58 58 58 58 58 56 58 58 58 57 57 56 55 55 55 55 53 52 51 51 51 50 50 49 48 47 47
56 57 56 57 57 57 55 55 54 55 57 57 57 55 55 54 54 53 53 53 52 52 51 51 51 50 50 49 48 48 46 45
54 54 56 56 56 56 55 53 53 56 55 54 54 54 53 53 53 52 52 51 52 50 50 50 50 49 49 47 47 46 44 43
54 54 55 56 55 53 51 51 52 53 54 53 53 53 52 52 52 52 51 51 51 50 49 48 48 48 47 45 44 45 43 41
52 53 53 53 51 52 53 51 53 54 54 54 53 52 51 51 50 50 51 49 49 48 47 46 46 45 42 41 43 41 41 41
52 51 52 52 52 51 52 52 52 53 53 52 50 50 49 49 49 49 48 47 46 46 45 45 43 40 38 39 42 41 40 40
50 50 51 51 50 51 51 52 52 51 50 50 49 49 49 49 48 47 47 45 45 45 43 41 37 39 41 41 41 40 39 39
49 49 48 48 49 49 49 49 50 49 48 48 49 48 48 47 46 45 44 44 43 43 41 39 41 43 37 37 38 39 38 37
46 47 48 48 48 48 48 48 48 47 47 48 47 46 45 45 45 45 44 43 42 41 41 41 40 40 36 36 33 38 36 35
47 48 47 48 48 48 46 47 46 45 45 45 45 45 43 44 43 43 43 42 42 42 41 39 39 39 35 34 32 36 35 34